This is the latest recevied weather packets stored in our database for station/object F4FSZ-11. If no packets are shown the sender has not sent any weather packets the latest 10 day(s).
| Time | Temp. | Humidity | Pressure | Rain* | Wind** | Luminosity | Snow |
|---|---|---|---|---|---|---|---|
| 1778000635 | 16.11° C | 97% | 1002.2 hPa | - | - | - | - |
| 1777999735 | 15° C | 100% | 1002.2 hPa | - | - | - | - |
| 1777998835 | 15.56° C | 95% | 1002.2 hPa | - | - | - | - |
| 1777997935 | 15° C | 99% | 1002.1 hPa | - | - | - | - |
| 1777997035 | 15° C | 98% | 1002 hPa | - | - | - | - |
| 1777996135 | 16.67° C | 87% | 1001.9 hPa | - | - | - | - |
| 1777995235 | 18.89° C | 78% | 1001.9 hPa | - | - | - | - |
| 1777993435 | 18.89° C | 78% | 1001.9 hPa | - | - | - | - |
| 1777992535 | 17.78° C | 88% | 1002 hPa | - | - | - | - |
| 1777991635 | 15.56° C | 94% | 1002 hPa | - | - | - | - |
| 1777990735 | 16.11° C | 90% | 1002.1 hPa | - | - | - | - |
| 1777989835 | 16.11° C | 90% | 1002.1 hPa | - | - | - | - |
| 1777988935 | 16.67° C | 88% | 1002.2 hPa | - | - | - | - |
| 1777988035 | 17.78° C | 75% | 1002.2 hPa | - | - | - | - |
| 1777987135 | 18.89° C | 74% | 1002.3 hPa | - | - | - | - |
| 1777986235 | 16.67° C | 88% | 1002.3 hPa | - | - | - | - |
| 1777985334 | 17.78° C | 70% | 1002.3 hPa | - | - | - | - |
| 1777984434 | 21.11° C | 59% | 1002.1 hPa | - | - | - | - |
| 1777983534 | 20.56° C | 63% | 1002.2 hPa | - | - | - | - |
| 1777982634 | 20° C | 63% | 1002.2 hPa | - | - | - | - |
| 1777981734 | 18.89° C | 66% | 1002.4 hPa | - | - | - | - |
| 1777980834 | 21.11° C | 62% | 1002.5 hPa | - | - | - | - |
| 1777979034 | 21.11° C | 62% | 1002.6 hPa | - | - | - | - |
| 1777978134 | 20° C | 67% | 1002.7 hPa | - | - | - | - |
| 1777977234 | 20° C | 66% | 1002.9 hPa | - | - | - | - |
* Rain since midnight (hover to see other rain measurements)
** Current wind speed in m/s (hover to see current wind gust speed)